{"data":{"norad_id":60508,"intl_designator":"2024-149AS","name":"EAGLEEYE","alt_names":[],"object_type":"PAYLOAD","status":"ACTIVE","operator":null,"country":"POL","launch_date":"2024-08-16","launch_site_code":"AFWTR","launch_vehicle":null,"mission":null,"orbit_class":"UNKNOWN","rcs_meters":null,"size_class":null,"mass_kg":null,"dimensions":null,"purposes":[],"wikipedia_slug":null,"has_3d_model":false,"image_url":null,"decayed_at":null,"tle_current":{"epoch":"2026-05-25T04:58:47.442720Z","epoch_age_seconds":53081,"freshness":"FRESH","line1":"1 60508U 24149AS  26145.20749355  .00077997  00000+0  74076-3 0  9997","line2":"2 60508  97.3724 237.3508 0001314 324.4235  35.6937 15.66637516 99336","mean_motion":15.66637516,"eccentricity":0.0001314,"inclination_deg":97.3724,"raan_deg":237.3508,"arg_perigee_deg":324.4235,"mean_anomaly_deg":35.6937,"bstar":0.00074076,"rev_number":9933,"period_min":91.916603891669,"perigee_km":367.6468774043,"apogee_km":369.41990238276,"semimajor_km":6746.6703898935,"source":"CELESTRAK","updated_at":"2026-05-25T13:38:02.120142Z"}}}